FW6558 Weather Reports


Display with metric or nautical units.
time (UTC)temp
F
wind
direction
speed
MPH
gust
MPH
rain 1hr
in
rain 24hr
in
rain mn
in
humidity
%
barometer
mb
20260506044807 62 253 1.0 16.0 0.00 0.00 0.00 56 1013.0
20260506043806 62 257 5.0 20.0 0.00 0.00 0.00 55 1012.8
20260506042306 62 271 3.0 7.0 0.00 0.00 0.00 55 1012.9
20260506041807 62 225 3.0 7.0 0.00 0.00 0.00 55 1013.1
20260506041307 62 299 5.0 12.0 0.00 0.00 0.00 54 1012.8
20260506040307 62 218 7.0 14.0 0.00 0.00 0.00 54 1012.7
20260506035807 62 251 6.0 10.0 0.00 0.00 0.00 54 1012.9
20260506034807 62 222 6.0 13.0 0.00 0.00 0.00 54 1013.0
20260506034307 61 215 6.0 13.0 0.00 0.00 0.00 54 1013.1
20260506033807 62 225 3.0 16.0 0.00 0.00 0.00 54 1012.9
20260506033307 62 238 5.0 21.0 0.00 0.00 0.00 53 1013.0
20260506032806 62 228 8.0 16.0 0.00 0.00 0.00 53 1013.1
20260506031807 61 182 4.0 7.0 0.00 0.00 0.00 53 1013.3
20260506030806 61 98 3.0 12.0 0.00 0.00 0.00 53 1013.2
20260506030307 61 49 3.0 7.0 0.00 0.00 0.00 54 1012.7
20260506025806 62 66 3.0 7.0 0.00 0.00 0.00 52 1013.0
20260506025307 62 326 3.0 13.0 0.00 0.00 0.00 52 1012.8
20260506024806 62 251 9.0 13.0 0.00 0.00 0.00 52 1012.7
20260506024306 61 211 2.0 10.0 0.00 0.00 0.00 52 1013.0
20260506023807 62 92 3.0 9.0 0.00 0.00 0.00 51 1013.2
20260506022806 62 214 6.0 12.0 0.00 0.00 0.00 51 1013.1
20260506022306 62 227 5.0 10.0 0.00 0.00 0.00 51 1013.1
20260506021807 62 238 3.0 10.0 0.00 0.00 0.00 51 1013.3
20260506021306 62 271 2.0 13.0 0.00 0.00 0.00 51 1013.5
20260506020806 62 177 5.0 13.0 0.00 0.00 0.00 51 1013.2
20260506020307 62 204 2.0 8.0 0.00 0.00 0.00 51 1013.1
20260506015807 62 227 2.0 6.0 0.00 0.00 0.00 50 1013.3
20260506015307 62 282 2.0 10.0 0.00 0.00 0.00 50 1013.1
20260506014307 62 104 2.0 7.0 0.00 0.00 0.00 50 1013.3
20260506013807 62 156 5.0 12.0 0.00 0.00 0.00 49 1013.0
20260506012806 62 223 5.0 10.0 0.00 0.00 0.00 49 1013.1
20260506012308 62 255 3.0 7.0 0.00 0.00 0.00 48 1013.1
20260506011806 62 82 1.0 5.0 0.00 0.00 0.00 48 1013.3
20260506011307 62 171 1.0 8.0 0.00 0.00 0.00 48 1013.1
20260506010806 62 238 2.0 6.0 0.00 0.00 0.00 47 1013.5
20260506010306 62 56 1.0 7.0 0.00 0.00 0.00 48 1013.0
20260506005807 63 286 3.0 13.0 0.00 0.00 0.00 47 1012.8
20260506005307 63 213 4.0 13.0 0.00 0.00 0.00 47 1012.9
20260506004806 63 234 5.0 13.0 0.00 0.00 0.00 46 1013.2
20260506004306 63 250 3.0 12.0 0.00 0.00 0.00 46 1013.0
20260506003806 63 171 3.0 12.0 0.00 0.00 0.00 46 1013.1
20260506003306 63 176 7.0 12.0 0.00 0.00 0.00 46 1012.9
20260506002807 64 244 3.0 15.0 0.00 0.00 0.00 46 1013.1
20260506002307 64 218 7.0 13.0 0.00 0.00 0.00 45 1012.8
20260506001806 63 166 6.0 16.0 0.00 0.00 0.00 45 1012.8
20260506001306 64 287 2.0 9.0 0.00 0.00 0.00 46 1012.8
20260506000806 64 278 3.0 14.0 0.00 0.00 0.00 46 1012.7
20260506000305 64 209 2.0 10.0 0.00 0.00 0.00 46 1012.8
20260505234806 64 255 6.0 13.0 0.00 0.00 0.00 45 1012.8
20260505234306 65 217 2.0 15.0 0.00 0.00 0.00 44 1012.5
20260505233806 65 200 6.0 16.0 0.00 0.00 0.00 44 1012.4
20260505233306 65 231 8.0 16.0 0.00 0.00 0.00 43 1012.4
20260505232306 65 153 12.0 20.0 0.00 0.00 0.00 43 1012.3
20260505231806 65 239 6.0 17.0 0.00 0.00 0.00 42 1012.5
20260505230306 65 257 10.0 18.0 0.00 0.00 0.00 41 1012.4
20260505225805 65 230 4.0 15.0 0.00 0.00 0.00 43 1012.3
20260505225306 66 187 7.0 16.0 0.00 0.00 0.00 42 1012.1
20260505224806 66 175 6.0 17.0 0.00 0.00 0.00 42 1012.0
20260505224305 66 217 7.0 17.0 0.00 0.00 0.00 42 1011.9
20260505223805 66 226 7.0 18.0 0.00 0.00 0.00 42 1011.8
20260505221805 67 226 10.0 17.0 0.00 0.00 0.00 40 1011.5
20260505221306 68 229 9.0 14.0 0.00 0.00 0.00 39 1011.4
20260505215805 68 190 3.0 16.0 0.00 0.00 0.00 38 1011.2
20260505215306 68 205 10.0 16.0 0.00 0.00 0.00 37 1011.4
20260505214306 69 202 11.0 18.0 0.00 0.00 0.00 37 1011.3
20260505213806 69 190 9.0 15.0 0.00 0.00 0.00 36 1011.3
20260505213306 69 212 7.0 18.0 0.00 0.00 0.00 37 1011.0
20260505212805 69 208 10.0 20.0 0.00 0.00 0.00 37 1011.0
20260505212306 69 242 6.0 14.0 0.00 0.00 0.00 38 1011.3
20260505211806 68 175 7.0 18.0 0.00 0.00 0.00 37 1011.4
20260505211305 69 209 7.0 14.0 0.00 0.00 0.00 38 1011.2
20260505210306 69 259 9.0 18.0 0.00 0.00 0.00 36 1011.0
20260505205805 71 168 13.0 18.0 0.00 0.00 0.00 35 1010.7
20260505205306 71 219 6.0 16.0 0.00 0.00 0.00 35 1010.9
20260505204806 70 191 10.0 17.0 0.00 0.00 0.00 36 1011.2
20260505204305 71 209 6.0 16.0 0.00 0.00 0.00 35 1011.0
20260505203305 71 229 10.0 16.0 0.00 0.00 0.00 36 1011.2
20260505202805 70 174 6.0 24.0 0.00 0.00 0.00 37 1011.4
20260505202307 69 189 13.0 25.0 0.00 0.00 0.00 35 1011.5
20260505201805 69 216 12.0 25.0 0.00 0.00 0.00 36 1011.4
20260505201305 70 225 12.0 18.0 0.00 0.00 0.00 34 1011.3
20260505200805 70 182 7.0 16.0 0.00 0.00 0.00 34 1010.9
20260505200305 70 234 7.0 24.0 0.00 0.00 0.00 34 1011.1
20260505195805 71 229 16.0 24.0 0.00 0.00 0.00 31 1011.0
20260505195305 71 146 3.0 17.0 0.00 0.00 0.00 32 1010.8
20260505194806 71 233 10.0 17.0 0.00 0.00 0.00 31 1011.3
20260505193805 72 213 1.0 16.0 0.00 0.00 0.00 35 1011.5
20260505193306 70 157 10.0 16.0 0.00 0.00 0.00 35 1011.7
20260505192806 70 181 7.0 17.0 0.00 0.00 0.00 33 1011.8
20260505192306 70 222 13.0 24.0 0.00 0.00 0.00 30 1011.5
20260505191805 70 207 11.0 24.0 0.00 0.00 0.00 29 1011.8
20260505191306 70 223 10.0 23.0 0.00 0.00 0.00 30 1012.0
20260505190805 70 234 10.0 18.0 0.00 0.00 0.00 30 1012.0
20260505190305 71 176 6.0 16.0 0.00 0.00 0.00 29 1011.9
20260505185805 71 222 9.0 20.0 0.00 0.00 0.00 34 1011.9
20260505185305 71 247 12.0 20.0 0.00 0.00 0.00 32 1012.1
20260505184805 70 187 9.0 20.0 0.00 0.00 0.00 33 1012.4
20260505184305 70 261 3.0 21.0 0.00 0.00 0.00 35 1012.3
20260505183805 70 198 8.0 17.0 0.00 0.00 0.00 34 1012.3
20260505183305 70 238 6.0 12.0 0.00 0.00 0.00 35 1012.4
20260505182805 71 244 5.0 15.0 0.00 0.00 0.00 33 1012.2
20260505182306 73 242 7.0 12.0 0.00 0.00 0.00 33 1011.8
20260505181805 72 248 5.0 17.0 0.00 0.00 0.00 36 1012.1
20260505181305 70 91 2.0 17.0 0.00 0.00 0.00 36 1012.5
20260505180305 71 216 3.0 12.0 0.00 0.00 0.00 37 1012.4
20260505175306 71 184 7.0 17.0 0.00 0.00 0.00 40 1012.7
20260505174805 71 218 6.0 10.0 0.00 0.00 0.00 41 1012.3
20260505174305 71 182 4.0 12.0 0.00 0.00 0.00 39 1012.4
20260505173305 70 103 3.0 8.0 0.00 0.00 0.00 37 1012.7
20260505172804 70 168 5.0 10.0 0.00 0.00 0.00 36 1012.7
20260505172306 70 76 5.0 12.0 0.00 0.00 0.00 36 1012.9
20260505171305 71 263 8.0 12.0 0.00 0.00 0.00 35 1012.8
20260505170805 70 115 2.0 10.0 0.00 0.00 0.00 36 1013.1
20260505170305 70 197 3.0 10.0 0.00 0.00 0.00 37 1013.0
20260505165805 70 294 3.0 7.0 0.00 0.00 0.00 36 1012.8
20260505165306 69 264 5.0 14.0 0.00 0.00 0.00 36 1013.1
20260505164805 69 264 9.0 14.0 0.00 0.00 0.00 34 1013.5
20260505163805 69 260 9.0 21.0 0.00 0.00 0.00 34 1013.8
20260505163305 69 268 5.0 16.0 0.00 0.00 0.00 34 1013.4
20260505162307 70 251 3.0 13.0 0.00 0.00 0.00 35 1013.5
20260505161805 70 246 4.0 8.0 0.00 0.00 0.00 32 1013.5
20260505161304 69 157 4.0 12.0 0.00 0.00 0.00 35 1013.9
20260505160804 70 218 6.0 12.0 0.00 0.00 0.00 34 1013.9
20260505160305 69 139 2.0 8.0 0.00 0.00 0.00 37 1013.9
20260505153305 69 272 3.0 6.0 0.00 0.00 0.00 38 1014.0
20260505152805 69 15 1.0 7.0 0.00 0.00 0.00 42 1014.2
20260505152305 69 292 3.0 9.0 0.00 0.00 0.00 43 1014.2
20260505151804 69 0 2.0 9.0 0.00 0.00 0.00 43 1014.3
20260505151304 67 22 2.0 8.0 0.00 0.00 0.00 42 1014.7
20260505150804 67 303 6.0 9.0 0.00 0.00 0.00 47 1015.1
20260505124805 58 51 3.0 5.0 0.00 0.00 0.00 64 1016.0
20260505124304 58 63 2.0 5.0 0.00 0.00 0.00 65 1016.1
20260505123804 56 56 1.0 2.0 0.00 0.00 0.00 66 1016.5
20260505123304 57 54 2.0 5.0 0.00 0.00 0.00 67 1016.5
20260505122804 57 60 1.0 2.0 0.00 0.00 0.00 65 1016.4
20260505121804 56 60 1.0 3.0 0.00 0.00 0.00 64 1016.5
20260505121304 57 61 1.0 2.0 0.00 0.00 0.00 65 1016.3
20260505120804 56 59 0.0 2.0 0.00 0.00 0.00 64 1016.5
20260505120304 54 87 2.0 5.0 0.00 0.00 0.00 69 1016.9
20260505115804 55 257 1.0 3.0 0.00 0.00 0.00 65 1016.6
20260505115305 54 232 0.0 1.0 0.00 0.00 0.00 66 1017.0
20260505114804 53 231 0.0 2.0 0.00 0.00 0.00 66 1017.3
20260505113804 52 295 0.0 2.0 0.00 0.00 0.00 67 1017.0
20260505113304 52 315 1.0 2.0 0.00 0.00 0.00 70 1017.3
20260505112804 51 251 1.0 2.0 0.00 0.00 0.00 70 1017.6
20260505112305 50 251 1.0 2.0 0.00 0.00 0.00 71 1017.5
20260505111304 49 252 1.0 3.0 0.00 0.00 0.00 75 1017.8
20260505110804 48 267 1.0 3.0 0.00 0.00 0.00 75 1018.0
20260505110304 48 255 2.0 3.0 0.00 0.00 0.00 75 1018.0
20260505101804 48 273 2.0 2.0 0.00 0.00 0.00 74 1017.5
20260505100803 48 59 1.0 2.0 0.00 0.00 0.00 75 1017.7
20260505100304 49 57 0.0 1.0 0.00 0.00 0.00 74 1017.5
20260505095804 49 58 1.0 2.0 0.00 0.00 0.00 72 1017.2
20260505095305 49 69 1.0 1.0 0.00 0.00 0.00 73 1017.3
20260505094303 49 69 1.0 2.0 0.00 0.00 0.00 73 1017.2
20260505092805 50 325 1.0 2.0 0.00 0.00 0.00 70 1017.1
20260505092305 52 124 0.0 2.0 0.00 0.00 0.00 66 1016.4
20260505091804 53 124 2.0 2.0 0.00 0.00 0.00 64 1016.2
20260505090808 54 169 0.0 1.0 0.00 0.00 0.00 62 1016.3
20260505090307 53 169 1.0 2.0 0.00 0.00 0.00 62 1016.4
20260505085807 53 149 2.0 2.0 0.00 0.00 0.00 63 1016.4
20260505085308 53 96 0.0 2.0 0.00 0.00 0.00 63 1016.6
20260505084808 53 96 2.0 3.0 0.00 0.00 0.00 63 1016.2
20260505084307 53 82 2.0 3.0 0.00 0.00 0.00 64 1016.3
20260505083807 52 232 1.0 2.0 0.00 0.00 0.00 65 1016.7
20260505083308 52 234 0.0 0.0 0.00 0.00 0.00 65 1016.4
20260505082807 52 234 0.0 1.0 0.00 0.00 0.00 64 1016.4
20260505082308 53 234 0.0 2.0 0.00 0.00 0.00 63 1016.6
20260505081807 53 234 0.0 2.0 0.00 0.00 0.00 62 1016.4
20260505081308 53 234 0.0 2.0 0.00 0.00 0.00 62 1016.0
20260505080307 52 245 2.0 2.0 0.00 0.00 0.00 64 1016.5
20260505075807 52 258 0.0 0.0 0.00 0.00 0.00 63 1016.0
20260505075307 53 258 0.0 0.0 0.00 0.00 0.00 62 1015.9
20260505074807 53 258 0.0 1.0 0.00 0.00 0.00 61 1016.0
20260505074308 53 258 0.0 2.0 0.00 0.00 0.00 61 1015.9
20260505073808 53 258 1.0 2.0 0.00 0.00 0.00 61 1015.8
20260505072807 54 247 0.0 2.0 0.00 0.00 0.00 60 1015.6
20260505072307 54 247 0.0 3.0 0.00 0.00 0.00 60 1015.4
20260505071308 55 41 0.0 3.0 0.00 0.00 0.00 58 1015.1
20260505070807 55 211 0.0 1.0 0.00 0.00 0.00 57 1015.2
20260505070307 55 210 1.0 6.0 0.00 0.00 0.00 58 1014.9
20260505065807 55 265 2.0 6.0 0.00 0.00 0.00 58 1015.0
20260505065307 55 225 0.0 3.0 0.00 0.00 0.00 58 1015.1
20260505064808 56 325 2.0 3.0 0.00 0.00 0.00 57 1015.0
20260505064307 56 249 2.0 8.0 0.00 0.00 0.00 56 1014.6
20260505063807 56 289 2.0 8.0 0.00 0.00 0.00 55 1014.5
20260505063307 56 246 0.0 2.0 0.00 0.00 0.00 56 1014.8
20260505062807 57 248 1.0 3.0 0.00 0.00 0.00 55 1014.7
20260505062307 57 235 1.0 3.0 0.00 0.00 0.00 55 1014.7
20260505061807 57 220 2.0 5.0 0.00 0.00 0.00 54 1014.5
20260505061307 57 261 2.0 5.0 0.00 0.00 0.00 55 1014.9
20260505055807 57 228 1.0 3.0 0.00 0.00 0.00 53 1014.9
20260505055307 57 196 0.0 3.0 0.00 0.00 0.00 53 1014.6
20260505054808 57 264 2.0 8.0 0.00 0.00 0.00 53 1014.6
20260505053807 58 41 2.0 5.0 0.00 0.00 0.00 53 1014.6
20260505053307 59 6 1.0 13.0 0.00 0.00 0.00 51 1014.2
20260505052807 59 260 9.0 15.0 0.00 0.00 0.00 50 1013.9
20260505052307 59 288 9.0 15.0 0.00 0.00 0.00 50 1014.0
20260505051807 59 285 5.0 12.0 0.00 0.00 0.00 50 1013.9
20260505051307 59 201 6.0 14.0 0.00 0.00 0.00 50 1014.1
20260505050807 59 261 5.0 10.0 0.00 0.00 0.00 50 1013.9
20260505050307 59 246 5.0 10.0 0.00 0.00 0.00 49 1014.1